GW4085 Weather Reports


time (UTC)temp
C
wind
direction
speed
KPH
gust
KPH
rain 1hr
cm
rain 24hr
cm
rain mn
cm
humidity
%
barometer
mb
20260906174804 37 347 4.8 4.8 0.00 0.00 0.00 43 1015.7
20260906174303 36 172 0.0 0.0 0.00 0.00 0.00 46 1015.8
20260906173758 35 53 1.6 4.8 0.00 0.00 0.00 45 1015.9
20260906173254 37 7 4.8 4.8 0.00 0.00 0.00 42 1016.1
20260906172753 37 186 3.2 4.8 0.00 0.00 0.00 43 1016.0
20260906172249 37 195 0.0 4.8 0.00 0.00 0.00 44 1016.2
20260906171744 37 1 6.4 9.7 0.00 0.00 0.00 42 1016.3
20260906171239 37 171 0.0 3.2 0.00 0.00 0.00 44 1016.3
20260906170735 36 179 0.0 4.8 0.00 0.00 0.00 47 1016.5
20260906170231 37 73 3.2 9.7 0.00 0.00 0.00 44 1016.5
20260906165727 36 182 0.0 3.2 0.00 0.00 0.00 48 1016.4
20260906165226 36 150 0.0 1.6 0.00 0.00 0.00 51 1016.5
20260906164721 36 187 1.6 4.8 0.00 0.00 0.00 49 1016.6
20260906164216 36 186 0.0 3.2 0.00 0.00 0.00 47 1016.6
20260906163712 36 324 4.8 4.8 0.00 0.00 0.00 48 1016.5
20260906163208 35 88 6.4 9.7 0.00 0.00 0.00 48 1016.9
20260906162705 35 0 0.0 3.2 0.00 0.00 0.00 49 1016.6
20260906162204 35 44 4.8 4.8 0.00 0.00 0.00 48 1016.9
20260906161658 35 4 3.2 9.7 0.00 0.00 0.00 50 1016.8
20260906161157 35 9 1.6 4.8 0.00 0.00 0.00 49 1016.8
20260906160652 35 127 1.6 1.6 0.00 0.00 0.00 49 1016.7
20260906160150 35 202 0.0 3.2 0.00 0.00 0.00 50 1016.9
20260906155648 35 200 1.6 1.6 0.00 0.00 0.00 53 1016.7
20260906155144 35 119 0.0 1.6 0.00 0.00 0.00 52 1016.9
20260906154638 34 160 0.0 0.0 0.00 0.00 0.00 52 1016.7
20260906154133 34 15 0.0 0.0 0.00 0.00 0.00 53 1016.9
20260906153632 33 162 0.0 0.0 0.00 0.00 0.00 53 1016.8
20260906153127 33 171 0.0 0.0 0.00 0.00 0.00 60 1016.6
20260906152626 33 192 0.0 0.0 0.00 0.00 0.00 53 1017.0
20260906152120 33 102 0.0 0.0 0.00 0.00 0.00 53 1016.8
20260906151615 33 167 0.0 0.0 0.00 0.00 0.00 54 1016.8
20260906151111 32 187 0.0 0.0 0.00 0.00 0.00 59 1016.5
20260906150606 32 165 0.0 0.0 0.00 0.00 0.00 62 1016.5
20260906145600 32 84 0.0 0.0 0.00 0.00 0.00 61 1016.4
20260906145055 32 152 0.0 0.0 0.00 0.00 0.00 62 1016.7
20260906144544 32 122 0.0 0.0 0.00 0.00 0.00 60 1016.4
20260906144040 31 114 0.0 0.0 0.00 0.00 0.00 62 1016.9
20260906143535 31 156 0.0 0.0 0.00 0.00 0.00 64 1016.7
20260906143031 30 157 0.0 0.0 0.00 0.00 0.00 66 1016.6
20260906142531 30 169 0.0 0.0 0.00 0.00 0.00 67 1016.6
20260906142027 30 148 0.0 0.0 0.00 0.00 0.00 68 1016.5
20260906141525 29 152 0.0 0.0 0.00 0.00 0.00 70 1016.6
20260906141020 28 160 0.0 0.0 0.00 0.00 0.00 70 1016.4
20260906140515 28 148 0.0 0.0 0.00 0.00 0.00 71 1016.4
20260906140014 28 162 0.0 0.0 0.00 0.00 0.00 72 1016.7
20260906135511 28 143 0.0 0.0 0.00 0.00 0.00 74 1016.4
20260906135007 27 151 0.0 0.0 0.00 0.00 0.00 75 1016.5
20260906134502 27 154 0.0 0.0 0.00 0.00 0.00 78 1016.6
20260906133957 27 122 0.0 0.0 0.00 0.00 0.00 77 1016.5
20260906133453 26 154 0.0 0.0 0.00 0.00 0.00 79 1016.4
20260906132948 26 154 0.0 0.0 0.00 0.00 0.00 81 1016.7
20260906132443 25 171 0.0 0.0 0.00 0.00 0.00 80 1016.5
20260906131938 26 169 0.0 0.0 0.00 0.00 0.00 80 1016.4
20260906131434 26 164 0.0 0.0 0.00 0.00 0.00 79 1016.5
20260906130930 25 151 0.0 0.0 0.00 0.00 0.00 80 1016.2
20260906130428 25 178 0.0 0.0 0.00 0.00 0.00 79 1016.1
20260906125923 25 151 0.0 0.0 0.00 0.00 0.00 83 1016.0
20260906125420 24 152 0.0 0.0 0.00 0.00 0.00 84 1016.2
20260906124919 23 153 0.0 0.0 0.00 0.00 0.00 86 1016.0
20260906124416 23 154 0.0 0.0 0.00 0.00 0.00 88 1015.9
20260906123910 23 147 0.0 0.0 0.00 0.00 0.00 89 1016.2
20260906123409 23 155 0.0 0.0 0.00 0.00 0.00 90 1015.9
20260906122904 22 148 0.0 0.0 0.00 0.00 0.00 91 1015.8
20260906122359 22 136 0.0 0.0 0.00 0.00 0.00 92 1015.7
20260906121856 22 140 0.0 0.0 0.00 0.00 0.00 93 1015.8
20260906121351 22 142 0.0 0.0 0.00 0.00 0.00 93 1015.8
20260906120848 21 153 0.0 0.0 0.00 0.00 0.00 93 1015.5
20260906120343 21 161 0.0 0.0 0.00 0.00 0.00 93 1015.6
20260906115839 21 162 0.0 0.0 0.00 0.00 0.00 93 1015.9
20260906115334 21 148 0.0 0.0 0.00 0.00 0.00 93 1015.6
20260906114833 21 154 0.0 0.0 0.00 0.00 0.00 92 1015.2
20260906114329 21 162 0.0 0.0 0.00 0.00 0.00 92 1015.5
20260906113824 21 159 0.0 0.0 0.00 0.00 0.00 92 1015.5
20260906113323 21 157 0.0 0.0 0.00 0.00 0.00 92 1015.2
20260906112819 21 157 0.0 0.0 0.00 0.00 0.00 92 1015.5
20260906112315 21 157 0.0 0.0 0.00 0.00 0.00 92 1015.5
20260906111814 21 160 0.0 0.0 0.00 0.00 0.00 92 1015.3
20260906111314 21 161 0.0 0.0 0.00 0.00 0.00 91 1015.5
20260906110809 21 160 0.0 0.0 0.00 0.00 0.00 91 1015.4
20260906110305 21 160 0.0 0.0 0.00 0.00 0.00 91 1015.3
20260906105804 22 161 0.0 0.0 0.00 0.00 0.00 91 1015.2
20260906105259 22 150 0.0 0.0 0.00 0.00 0.00 91 1015.3
20260906104755 22 161 0.0 0.0 0.00 0.00 0.00 91 1015.2
20260906104253 22 158 0.0 0.0 0.00 0.00 0.00 91 1015.2
20260906103751 22 162 0.0 0.0 0.00 0.00 0.00 90 1015.3
20260906103246 22 153 0.0 0.0 0.00 0.00 0.00 90 1015.2
20260906102741 22 159 0.0 0.0 0.00 0.00 0.00 90 1015.1
20260906102234 22 146 0.0 0.0 0.00 0.00 0.00 89 1015.1
20260906101729 22 141 0.0 0.0 0.00 0.00 0.00 89 1015.0
20260906101219 22 163 0.0 0.0 0.00 0.00 0.00 89 1014.8
20260906100714 22 163 0.0 0.0 0.00 0.00 0.00 89 1015.0
20260906100209 22 150 0.0 0.0 0.00 0.00 0.00 88 1015.0
20260906095704 22 155 0.0 0.0 0.00 0.00 0.00 88 1015.2
20260906095159 22 165 0.0 0.0 0.00 0.00 0.00 88 1015.0
20260906094657 22 171 0.0 0.0 0.00 0.00 0.00 88 1015.0
20260906094153 22 159 0.0 0.0 0.00 0.00 0.00 88 1015.0
20260906093649 22 155 0.0 0.0 0.00 0.00 0.00 88 1015.0
20260906093144 22 155 0.0 0.0 0.00 0.00 0.00 87 1015.0
20260906092638 22 155 0.0 0.0 0.00 0.00 0.00 87 1015.1
20260906092133 22 165 0.0 0.0 0.00 0.00 0.00 87 1014.9
20260906091629 22 167 0.0 0.0 0.00 0.00 0.00 87 1015.0
20260906091125 23 167 0.0 0.0 0.00 0.00 0.00 86 1014.9
20260906090620 23 167 0.0 0.0 0.00 0.00 0.00 86 1015.0
20260906090115 23 149 0.0 0.0 0.00 0.00 0.00 85 1014.9
20260906085614 23 151 0.0 0.0 0.00 0.00 0.00 84 1015.0
20260906085108 23 117 0.0 0.0 0.00 0.00 0.00 84 1014.9
20260906084603 23 160 0.0 0.0 0.00 0.00 0.00 83 1014.4
20260906084102 23 159 0.0 0.0 0.00 0.00 0.00 83 1014.8
20260906083558 23 151 0.0 0.0 0.00 0.00 0.00 82 1015.0
20260906083057 23 163 0.0 0.0 0.00 0.00 0.00 83 1014.9
20260906082553 23 125 0.0 0.0 0.00 0.00 0.00 84 1014.8
20260906082048 23 163 0.0 0.0 0.00 0.00 0.00 83 1014.8
20260906081544 23 163 0.0 0.0 0.00 0.00 0.00 83 1014.8
20260906081039 23 163 0.0 0.0 0.00 0.00 0.00 84 1014.7
20260906080536 23 164 0.0 0.0 0.00 0.00 0.00 84 1014.8
20260906080031 23 178 0.0 0.0 0.00 0.00 0.00 84 1014.9
20260906075525 23 154 0.0 0.0 0.00 0.00 0.00 84 1014.7
20260906075020 23 163 0.0 0.0 0.00 0.00 0.00 84 1015.0
20260906074515 23 158 0.0 0.0 0.00 0.00 0.00 84 1014.8
20260906074014 23 155 0.0 0.0 0.00 0.00 0.00 84 1014.9
20260906073509 23 160 0.0 0.0 0.00 0.00 0.00 85 1014.6
20260906073005 23 165 0.0 0.0 0.00 0.00 0.00 85 1014.8
20260906072459 23 163 0.0 0.0 0.00 0.00 0.00 85 1014.9
20260906071955 23 167 0.0 0.0 0.00 0.00 0.00 84 1015.0
20260906071451 24 165 0.0 0.0 0.00 0.00 0.00 84 1015.0
20260906070946 24 163 0.0 0.0 0.00 0.00 0.00 83 1015.0
20260906070442 24 148 0.0 0.0 0.00 0.00 0.00 83 1014.8
20260906065938 24 142 0.0 0.0 0.00 0.00 0.00 83 1015.0
20260906065432 24 161 0.0 0.0 0.00 0.00 0.00 83 1015.2
20260906064928 24 158 0.0 0.0 0.00 0.00 0.00 82 1014.9
20260906064424 24 160 0.0 0.0 0.00 0.00 0.00 82 1015.1
20260906063918 25 163 0.0 0.0 0.00 0.00 0.00 81 1015.0
20260906063408 25 165 0.0 0.0 0.00 0.00 0.00 80 1015.2
20260906062903 25 147 0.0 0.0 0.00 0.00 0.00 77 1015.3
20260906062403 25 151 0.0 0.0 0.00 0.00 0.00 78 1015.1
20260906061858 25 147 0.0 0.0 0.00 0.00 0.00 78 1015.0
20260906061354 25 147 0.0 0.0 0.00 0.00 0.00 79 1015.1
20260906060848 25 149 0.0 0.0 0.00 0.00 0.00 79 1015.2
20260906060346 25 148 0.0 0.0 0.00 0.00 0.00 80 1015.1
20260906055842 25 159 0.0 0.0 0.00 0.00 0.00 80 1015.4
20260906055337 25 165 0.0 0.0 0.00 0.00 0.00 80 1015.3
20260906054832 25 173 0.0 0.0 0.00 0.00 0.00 79 1015.2
20260906054327 25 159 0.0 0.0 0.00 0.00 0.00 79 1015.1
20260906053824 25 165 0.0 0.0 0.00 0.00 0.00 78 1015.3
20260906053319 25 161 0.0 0.0 0.00 0.00 0.00 78 1015.2
20260906052814 25 160 0.0 0.0 0.00 0.00 0.00 78 1015.1
20260906052311 25 165 0.0 0.0 0.00 0.00 0.00 77 1015.1
20260906051808 25 147 0.0 0.0 0.00 0.00 0.00 77 1015.0
20260906051307 25 146 0.0 0.0 0.00 0.00 0.00 77 1014.9
20260906050802 25 169 0.0 0.0 0.00 0.00 0.00 78 1014.9
20260906050258 25 169 0.0 0.0 0.00 0.00 0.00 78 1014.9
20260906045756 25 167 0.0 0.0 0.00 0.00 0.00 77 1015.0
20260906045251 26 167 0.0 0.0 0.00 0.00 0.00 76 1015.0
20260906044747 26 167 0.0 0.0 0.00 0.00 0.00 75 1015.0
20260906044242 26 167 0.0 0.0 0.00 0.00 0.00 76 1014.8
20260906043738 26 163 0.0 0.0 0.00 0.00 0.00 75 1015.0
20260906043234 26 163 0.0 0.0 0.00 0.00 0.00 75 1015.0
20260906042733 26 165 0.0 0.0 0.00 0.00 0.00 75 1015.0
20260906042232 26 167 0.0 0.0 0.00 0.00 0.00 75 1015.2
20260906041728 26 167 0.0 0.0 0.00 0.00 0.00 74 1014.9
20260906041223 26 163 0.0 0.0 0.00 0.00 0.00 73 1014.7
20260906040719 26 163 0.0 0.0 0.00 0.00 0.00 73 1015.0
20260906040214 26 163 0.0 0.0 0.00 0.00 0.00 72 1014.7
20260906035709 26 163 0.0 0.0 0.00 0.00 0.00 72 1014.7
20260906035204 26 163 0.0 0.0 0.00 0.00 0.00 72 1014.9
20260906034659 26 162 0.0 0.0 0.00 0.00 0.00 71 1014.7
20260906034154 26 163 0.0 0.0 0.00 0.00 0.00 71 1014.8
20260906033650 27 165 0.0 0.0 0.00 0.00 0.00 71 1014.6
20260906033149 27 162 0.0 0.0 0.00 0.00 0.00 69 1014.8
20260906032646 27 152 0.0 0.0 0.00 0.00 0.00 68 1014.6
20260906032145 27 152 0.0 0.0 0.00 0.00 0.00 68 1014.8
20260906031636 27 152 0.0 0.0 0.00 0.00 0.00 67 1014.8
20260906031131 27 165 0.0 0.0 0.00 0.00 0.00 67 1014.7
20260906030630 27 160 0.0 0.0 0.00 0.00 0.00 66 1014.8
20260906030126 27 155 0.0 0.0 0.00 0.00 0.00 66 1014.8
20260906025625 27 165 0.0 0.0 0.00 0.00 0.00 67 1014.6
20260906025124 27 165 0.0 0.0 0.00 0.00 0.00 66 1014.4
20260906024619 27 165 0.0 0.0 0.00 0.00 0.00 66 1014.2
20260906024113 27 165 0.0 0.0 0.00 0.00 0.00 66 1014.6
20260906023609 28 165 0.0 0.0 0.00 0.00 0.00 65 1014.2
20260906023103 28 165 0.0 0.0 0.00 0.00 0.00 65 1014.4
20260906022559 28 167 0.0 0.0 0.00 0.00 0.00 64 1014.3
20260906022055 28 153 0.0 0.0 0.00 0.00 0.00 63 1014.1
20260906021550 28 154 0.0 0.0 0.00 0.00 0.00 63 1014.1
20260906021048 29 167 0.0 0.0 0.00 0.00 0.00 62 1014.0
20260906020543 30 167 0.0 0.0 0.00 0.00 0.00 61 1014.2
20260906020043 30 160 0.0 0.0 0.00 0.00 0.00 57 1013.9
20260906015542 30 137 0.0 0.0 0.00 0.00 0.00 57 1013.9
20260906015041 30 137 0.0 1.6 0.00 0.00 0.00 56 1013.9
20260906014536 30 63 0.0 0.0 0.00 0.00 0.00 57 1013.8
20260906014032 30 136 0.0 0.0 0.00 0.00 0.00 59 1013.5
20260906013527 29 148 0.0 0.0 0.00 0.00 0.00 61 1013.6
20260906013023 29 158 0.0 0.0 0.00 0.00 0.00 60 1013.6
20260906012518 30 157 0.0 0.0 0.00 0.00 0.00 60 1013.6
20260906012017 30 169 0.0 0.0 0.00 0.00 0.00 59 1013.4
20260906011514 30 170 0.0 0.0 0.00 0.00 0.00 58 1013.4
20260906011013 31 161 0.0 0.0 0.00 0.00 0.00 55 1013.5
20260906010509 31 157 0.0 0.0 0.00 0.00 0.00 54 1013.4
20260906010005 31 148 0.0 0.0 0.00 0.00 0.00 52 1013.6
20260906005504 31 136 0.0 1.6 0.00 0.00 0.00 53 1013.4
20260906005003 31 120 0.0 0.0 0.00 0.00 0.00 53 1013.4
20260906004502 31 155 0.0 0.0 0.00 0.00 0.00 53 1013.2
20260906003958 32 160 0.0 0.0 0.00 0.00 0.00 52 1013.3
20260906003453 32 165 0.0 0.0 0.00 0.00 0.00 51 1013.3
20260906002949 33 162 0.0 0.0 0.00 0.00 0.00 49 1013.3
20260906002448 33 162 0.0 0.0 0.00 0.00 0.00 46 1013.3
20260906001943 34 161 0.0 0.0 0.00 0.00 0.00 46 1013.4
20260906001439 35 179 0.0 0.0 0.00 0.00 0.00 45 1013.3
20260906000928 35 162 0.0 0.0 0.00 0.00 0.00 43 1013.5
20260906000425 35 162 0.0 0.0 0.00 0.00 0.00 43 1013.3
20260905235918 35 160 0.0 0.0 0.00 0.00 0.00 43 1013.1
20260905235413 35 162 0.0 1.6 0.00 0.00 0.00 41 1013.4
20260905234908 35 172 0.0 0.0 0.00 0.00 0.00 42 1013.3
20260905234403 36 180 1.6 3.2 0.00 0.00 0.00 41 1013.2
20260905233858 36 180 0.0 0.0 0.00 0.00 0.00 41 1013.3
20260905233353 36 184 0.0 1.6 0.00 0.00 0.00 41 1013.2
20260905232852 37 183 0.0 1.6 0.00 0.00 0.00 40 1013.1
20260905232349 37 178 0.0 3.2 0.00 0.00 0.00 38 1013.1
20260905231844 37 184 0.0 1.6 0.00 0.00 0.00 39 1013.3
20260905231338 37 176 0.0 0.0 0.00 0.00 0.00 37 1013.1
20260905230835 37 174 0.0 0.0 0.00 0.00 0.00 38 1013.3
20260905230332 37 175 0.0 0.0 0.00 0.00 0.00 38 1013.1
20260905225832 38 188 0.0 3.2 0.00 0.00 0.00 37 1013.1
20260905225327 38 189 0.0 1.6 0.00 0.00 0.00 36 1013.0
20260905224821 38 179 0.0 0.0 0.00 0.00 0.00 37 1013.0
20260905224317 38 19 1.6 3.2 0.00 0.00 0.00 37 1013.0
20260905223812 38 11 0.0 0.0 0.00 0.00 0.00 37 1013.0
20260905223310 38 137 0.0 3.2 0.00 0.00 0.00 37 1013.0
20260905222805 38 205 0.0 3.2 0.00 0.00 0.00 37 1013.0
20260905222306 38 185 0.0 0.0 0.00 0.00 0.00 38 1013.2
20260905221800 38 185 1.6 1.6 0.00 0.00 0.00 37 1013.2
20260905221256 37 184 0.0 0.0 0.00 0.00 0.00 38 1013.2
20260905220752 37 26 1.6 1.6 0.00 0.00 0.00 39 1013.2
20260905220248 37 343 6.4 8.0 0.00 0.00 0.00 38 1013.2
20260905215747 37 7 3.2 3.2 0.00 0.00 0.00 39 1013.2
20260905215243 37 196 1.6 3.2 0.00 0.00 0.00 40 1013.3
20260905214739 37 178 0.0 8.0 0.00 0.00 0.00 41 1013.4
20260905214235 37 32 3.2 8.0 0.00 0.00 0.00 39 1013.5
20260905213730 38 5 3.2 3.2 0.00 0.00 0.00 39 1013.3
20260905213226 38 287 4.8 8.0 0.00 0.00 0.00 39 1013.3
20260905212720 39 186 0.0 8.0 0.00 0.00 0.00 38 1013.6
20260905212219 38 181 0.0 1.6 0.00 0.00 0.00 39 1013.3
20260905211714 39 184 0.0 1.6 0.00 0.00 0.00 38 1013.7
20260905211209 38 304 1.6 3.2 0.00 0.00 0.00 37 1013.5
20260905210706 38 178 0.0 1.6 0.00 0.00 0.00 38 1013.7
20260905210205 38 193 4.8 4.8 0.00 0.00 0.00 39 1013.8
20260905205704 39 201 4.8 4.8 0.00 0.00 0.00 37 1014.0
20260905205159 38 189 0.0 1.6 0.00 0.00 0.00 38 1014.1
20260905204658 38 210 0.0 3.2 0.00 0.00 0.00 37 1014.2
20260905204153 38 202 0.0 3.2 0.00 0.00 0.00 41 1014.1
20260905203648 37 174 3.2 4.8 0.00 0.00 0.00 41 1014.3
20260905203144 37 202 3.2 4.8 0.00 0.00 0.00 41 1014.4
20260905202639 38 336 1.6 3.2 0.00 0.00 0.00 39 1014.6
20260905202134 38 184 0.0 0.0 0.00 0.00 0.00 39 1014.4
20260905201630 37 90 0.0 1.6 0.00 0.00 0.00 43 1014.4
20260905201129 37 50 0.0 3.2 0.00 0.00 0.00 42 1014.7
20260905200625 37 186 0.0 4.8 0.00 0.00 0.00 45 1014.8
20260905200120 37 177 0.0 1.6 0.00 0.00 0.00 45 1014.9
20260905195614 38 6 4.8 8.0 0.00 0.00 0.00 42 1014.9
20260905195109 38 62 0.0 4.8 0.00 0.00 0.00 41 1014.9
20260905194608 38 187 3.2 4.8 0.00 0.00 0.00 42 1015.0
20260905194107 37 182 1.6 3.2 0.00 0.00 0.00 41 1015.0
20260905193602 38 233 0.0 1.6 0.00 0.00 0.00 42 1014.9
20260905193057 38 214 1.6 1.6 0.00 0.00 0.00 39 1015.2
20260905192554 38 199 1.6 4.8 0.00 0.00 0.00 42 1015.1
20260905192050 38 193 0.0 3.2 0.00 0.00 0.00 44 1015.1
20260905191548 38 208 0.0 3.2 0.00 0.00 0.00 42 1015.3
20260905191047 37 137 3.2 3.2 0.00 0.00 0.00 43 1015.1
20260905190546 37 183 3.2 8.0 0.00 0.00 0.00 44 1015.3
20260905190045 36 198 4.8 8.0 0.00 0.00 0.00 44 1015.5
20260905185544 37 189 3.2 3.2 0.00 0.00 0.00 45 1015.7
20260905185044 36 189 0.0 1.6 0.00 0.00 0.00 45 1015.9
20260905184538 35 84 1.6 1.6 0.00 0.00 0.00 49 1015.7
20260905184037 35 167 0.0 1.6 0.00 0.00 0.00 46 1016.0
20260905183531 36 115 0.0 4.8 0.00 0.00 0.00 47 1016.4
20260905183027 35 178 0.0 0.0 0.00 0.00 0.00 46 1016.1
20260905182526 35 352 1.6 4.8 0.00 0.00 0.00 47 1016.0
20260905182021 35 179 1.6 3.2 0.00 0.00 0.00 48 1016.1
20260905181516 35 170 0.0 0.0 0.00 0.00 0.00 47 1016.2
20260905181015 35 134 0.0 3.2 0.00 0.00 0.00 47 1016.0
20260905180510 36 267 3.2 4.8 0.00 0.00 0.00 44 1016.3
20260905180006 37 194 1.6 4.8 0.00 0.00 0.00 45 1016.4
20260905175505 36 142 1.6 3.2 0.00 0.00 0.00 45 1016.2